Dallas, TX

8:44 AM CST on February 23, 2017 (GMT -0600)
Dallas Love

Weather History for KDAL - September, 2014

Change the Weather History Date:

Friday, September 5, 2014

  Actual Average Record
Temperature  
Mean Temperature 88 °F -  
Max Temperature 97 °F 90 °F 102 °F (1998)
Min Temperature 78 °F 71 °F 68 °F (1997)
Cooling Degree Days 22    
Growing Degree Days 38 (Base 50)    
Moisture  
Dew Point 67 °F    
Average Humidity 54    
Maximum Humidity 74    
Minimum Humidity 32    
Precipitation  
Precipitation 0.00 in - - ()
Sea Level Pressure  
Sea Level Pressure 30.02 in    
Wind  
Wind Speed 9 mph (SSE)    
Max Wind Speed 15 mph    
Max Gust Speed -    
Visibility 10 miles    
Events      
Averages and records for this station are not official NWS values.
T = Trace of Precipitation, MM = Missing Value Source: NWS Daily Summary

Daily Weather History Graph

Daily Weather History Graph

Search for Another Location

Airport or City:

Trip Planner

Search our weather history database for the weather conditions in past years. The results will help you decide how hot, cold, wet, or windy it might be!

Date:

Astronomy

Sep. 05, 2014 Rise Set
Actual Time 7:04 AM CDT 7:46 PM CDT
Civil Twilight 6:39 AM CDT 8:11 PM CDT
Nautical Twilight 6:10 AM CDT 8:41 PM CDT
Astronomical Twilight 5:39 AM CDT 9:11 PM CDT
Moon 5:09 PM CDT (9/5) 3:08 AM CDT (9/5)
Length of Visible Light 13h 32m
Length of Day
12h 42m
Waxing Gibbous, 84% of the Moon is Illuminated
Sep 5
Waxing Gibbous
Sep 8
Full
Sep 15
Last Quarter
Sep 24
New
Oct 1
First Quarter

Hourly Weather History & Observations

Time (CDT) Temp. Heat Index Dew Point Humidity Pressure Visibility Wind Dir Wind Speed Gust Speed Precip Events Conditions
12:53 AM 84.0 °F 87.0 °F 68.0 °F 58% 30.01 in 10.0 mi SSE 11.5 mph - N/A   Partly Cloudy
1:53 AM 82.9 °F 85.8 °F 68.0 °F 60% 30.01 in 10.0 mi SSE 10.4 mph - N/A   Scattered Clouds
2:53 AM 81.0 °F 83.8 °F 68.0 °F 65% 30.02 in 10.0 mi South 9.2 mph - N/A   Scattered Clouds
3:53 AM 80.6 °F 83.9 °F 69.8 °F 70% 30.04 in 10.0 mi South 6.9 mph - N/A   Scattered Clouds
4:53 AM 78.1 °F - 69.1 °F 74% 30.02 in 10.0 mi South 5.8 mph - N/A   Scattered Clouds
5:53 AM 78.1 °F - 69.1 °F 74% 30.03 in 10.0 mi South 5.8 mph - N/A   Scattered Clouds
6:53 AM 78.8 °F - 69.8 °F 74% 30.08 in 10.0 mi South 6.9 mph - N/A   Partly Cloudy
7:53 AM 79.0 °F - 70.0 °F 74% 30.08 in 10.0 mi South 5.8 mph - N/A   Partly Cloudy
8:53 AM 82.0 °F 86.7 °F 72.0 °F 71% 30.08 in 10.0 mi SSW 10.4 mph - N/A   Partly Cloudy
9:53 AM 82.9 °F 88.8 °F 73.0 °F 72% 30.08 in 10.0 mi SW 6.9 mph - N/A   Scattered Clouds
10:53 AM 86.0 °F 93.4 °F 73.4 °F 66% 30.10 in 10.0 mi Variable 3.5 mph - N/A   Scattered Clouds
11:53 AM 90.0 °F 93.6 °F 68.0 °F 48% 30.07 in 10.0 mi Variable 5.8 mph - N/A   Scattered Clouds
12:53 PM 91.9 °F 94.5 °F 66.0 °F 42% 30.05 in 10.0 mi SSE 9.2 mph - N/A   Scattered Clouds
1:53 PM 93.0 °F 95.9 °F 66.0 °F 41% 30.03 in 10.0 mi South 9.2 mph - N/A   Scattered Clouds
2:53 PM 93.0 °F 95.9 °F 66.0 °F 41% 30.01 in 10.0 mi SE 6.9 mph - N/A   Mostly Cloudy
3:53 PM 95.0 °F 96.0 °F 63.0 °F 34% 29.98 in 10.0 mi SSE 6.9 mph - N/A   Scattered Clouds
4:53 PM 97.0 °F 98.3 °F 63.0 °F 32% 29.95 in 10.0 mi SSE 13.8 mph - N/A   Scattered Clouds
5:53 PM 96.1 °F 97.3 °F 63.0 °F 33% 29.94 in 10.0 mi Variable 6.9 mph - N/A   Scattered Clouds
6:53 PM 93.9 °F 95.2 °F 63.0 °F 36% 29.94 in 10.0 mi SSE 8.1 mph - N/A   Scattered Clouds
7:53 PM 91.9 °F 92.9 °F 63.0 °F 38% 29.95 in 10.0 mi SE 15.0 mph - N/A   Partly Cloudy
8:53 PM 90.0 °F 91.7 °F 64.9 °F 43% 29.98 in 10.0 mi SE 12.7 mph - N/A   Scattered Clouds
9:53 PM 89.1 °F 91.0 °F 64.9 °F 45% 30.00 in 10.0 mi SE 10.4 mph - N/A   Partly Cloudy
10:53 PM 88.0 °F 90.3 °F 66.0 °F 48% 30.00 in 10.0 mi SE 11.5 mph - N/A   Clear
11:53 PM 86.0 °F 88.8 °F 66.9 °F 53% 30.00 in 10.0 mi South 8.1 mph - N/A   Partly Cloudy